Location: *
(45.5667°S, 177.5167°W)
Time: 16:17:11
(UTC+00:00)

Cosmos 1447 Rocket - Pass Details

Date: 29 May 2022
Orbit: 953 x 996 km, 82.9° (Epoch: 28 June)

Event Time Altitude Azimuth Distance (km) Brightness Sun altitude
Rises 06:47:21 0° 350° (N) 3,631 7.7 -25.5°
Reaches altitude 10° 06:49:50 10° 349° (N) 2,689 7.0 -26.0°
Maximum altitude 06:56:00 80° 262° (W) 985 4.5 -27.1°
Drops below altitude 10° 07:02:14 10° 174° (S) 2,720 6.7 -28.1°
Enters shadow 07:03:22 - 173° (S) 3,146 7.1 -28.3°
